Regional Weather Roundup
Issued by NWS Newport/Morehead, NC

Current Version | Previous Version | Text Only | Print | Product List | Glossary On
Versions: 1 2 3 4 5 6 7 8 9 10 11 12 13 14 15 16 17 18 19 20 21 22 23 24 25 26 27 28 29 30 31 32 33 34 35 36 37 38 39 40 41 42 43 44 45 46 47 48 49 50
000 ASUS42 KMHX 230813 RWRMHX WEATHER ROUNDUP FOR EASTERN NORTH CAROLINA NATIONAL WEATHER SERVICE NEWPORT/MOREHEAD CITY NC 300 AM EST MON JAN 23 2017 NOTE: "FAIR" INDICATES FEW OR NO CLOUDS BELOW 12,000 FEET WITH NO SIGNIFICANT WEATHER AND/OR OBSTRUCTIONS TO VISIBILITY NCZ015>017-031-032-045>047-102-103-230900- NORTH COAST CITY SKY/WX TMP DP RH WIND PRES REMARKS EDENTON LGT RAIN 52 50 94 E9 29.38F ELIZABETH CITY RAIN 49 49 100 N8 29.43F FOG KITTY HAWK NOT AVBL MANTEO LGT RAIN 48 48 100 E9 29.42F $$ NCZ045>047-081-094-103-104-230900- CENTRAL COAST CITY SKY/WX TMP DP RH WIND PRES REMARKS FRISCO RAIN 56 55 97 E13 29.38F FOG $$ NCZ095-097-098-100-101-230900- SOUTHERN COAST CITY SKY/WX TMP DP RH WIND PRES REMARKS BEAUFORT LGT RAIN 57 57 100 NW18G26 29.30F CEDAR ISLAND NOT AVBL JACKSONVILLE CLOUDY 57 57 100 E12 29.29F PINEY ISLAND LGT RAIN N/A N/A N/A E18G29 29.31F WILMINGTON CLOUDY 64 64 100 S8 29.24F $$ NCZ011>013-027>030-043-044-078>080-089-090>093-098-230900- COASTAL PLAIN CITY SKY/WX TMP DP RH WIND PRES REMARKS AHOSKIE RAIN 49 48 97 NE8 29.38F CLINTON RAIN 59 59 100 E7G16 29.25F ELIZABETHTOWN CLOUDY 61 61 100 E7 29.23F GOLDSBORO CLOUDY 55 55 100 E18 29.25F GREENVILLE NOT AVBL HAVELOCK RAIN 52 51 97 N8 29.35F KENANSVILLE LGT RAIN 57 57 100 E3 29.29F KINSTON RAIN 54 54 100 E8 29.32F NEW BERN RAIN 54 53 97 VRB3 29.34S FOG RICHLANDS CLOUDY 57 56 96 E14 29.29F ROCKY MOUNT LGT RAIN 52 52 100 NE8 29.35F WASHINGTON LGT RAIN 51 51 99 E10 N/A WHITEVILLE CLOUDY 62 61 96 S5 29.23S $$ AMZ130-135-150-152-154-156-158-170-250-252-270-ANZ085-086-088-633-658-670-230900- MARINE OBSERVATIONS STATION/POSITION TIME TEMP WIND PRES WAVE SWELL AIR SEA DIR/SP/G HT/PER HT/PER (UTC) (F) (DEG/KT/KT) (MB) (FT/S) (FT/S) CHESAPEAKE LIGHT NOT AVBL 64 E VA BEACH 0750 55 56 100/ 14/ 16 997.0 4/13 3/13 DUCK 0748 47 46 60/ 5/ 10 996.5 2 E DUCK 0730 46 N/A 3/13 2/13 OREGON INLET 0742 49 50 80/ 11/ 15 995.5 13E OREGON INLT NOT AVBL HATTERAS CG 0748 53 55 60/ 11/ 18 994.5 DIAMOND BUOY 0750 67 71 130/ 14/ 17 995.1 5/14 5/14 CAPE LOOKOUT 0700 64 100/ 16/ 18 993.1 BEAUFORT LAB 0748 58 52 30/ 11/ 17 990.7 30 SE NEW RVR IN 0708 69 70 170/ 27/ 35 991.0 30 SE NEW RVR IN 0743 70 N/A 9/ 8 2/12 27 SE WRIGHTSVLE 0708 68 67 190/ 21/ 27 990.2 5 SE WRIGHTSVLE 0708 62 160/ 14/ 19 990.4 225 S CAPE HAT 0750 74 71 180/ 25/ 31 997.5 13/ 9 8/ 9 41 SE CHARLESTON 0650 63 65 260/ 31/ 39 992.1 10/ 8 3/12 $$

USA.gov is the U.S. government's official web portal to all federal, state and local government web resources and services.